EW5383 Weather Reports


Display with metric or nautical units.
time (UTC)temp
F
wind
direction
speed
MPH
gust
MPH
rain 1hr
in
rain 24hr
in
rain mn
in
humidity
%
barometer
mb
20260508200030 95 226 0.0 1.0 0.00 0.00 0.00 52 1012.6
20260508194523 94 21 0.0 0.0 0.00 0.00 0.00 52 1012.8
20260508193019 94 25 0.0 0.0 0.00 0.00 0.00 53 1013.1
20260508191519 95 89 0.0 0.0 0.00 0.00 0.00 52 1013.4
20260508190017 95 165 0.0 0.0 0.00 0.00 0.00 53 1013.5
20260508184509 95 50 0.0 1.0 0.00 0.00 0.00 54 1013.6
20260508183004 95 75 0.0 0.0 0.00 0.00 0.00 55 1014.0
20260508181600 94 21 0.0 1.0 0.00 0.00 0.00 56 1014.2
20260508180059 93 13 0.0 1.0 0.00 0.00 0.00 56 1014.4
20260508174609 93 284 0.0 0.0 0.00 0.00 0.00 58 1014.5
20260508173049 91 79 0.0 1.0 0.00 0.00 0.00 61 1014.7
20260508171544 91 18 0.0 0.0 0.00 0.00 0.00 59 1014.8
20260508170045 90 31 0.0 0.0 0.00 0.00 0.00 60 1014.9
20260508164537 92 41 0.0 0.0 0.00 0.00 0.00 59 1015.1
20260508163032 90 51 0.0 0.0 0.00 0.00 0.00 60 1015.3
20260508161526 90 328 0.0 0.0 0.00 0.00 0.00 61 1015.5
20260508160021 88 56 0.0 2.0 0.00 0.00 0.00 61 1015.7
20260508154521 88 23 0.0 2.0 0.00 0.00 0.00 60 1015.9
20260508153014 87 355 0.0 3.0 0.00 0.00 0.00 58 1016.1
20260508151508 87 35 0.0 1.0 0.00 0.00 0.00 59 1016.2
20260508150005 86 48 0.0 0.0 0.00 0.00 0.00 59 1016.1
20260508144600 85 16 0.0 3.0 0.00 0.00 0.00 55 1016.0
20260508143059 86 9 0.0 0.0 0.00 0.00 0.00 58 1016.1
20260508141551 87 172 0.0 0.0 0.00 0.00 0.00 46 1016.1
20260508140054 85 49 0.0 1.0 0.00 0.00 0.00 41 1016.2
20260508134547 83 51 0.0 0.0 0.00 0.00 0.00 6 1016.3
20260508133037 84 54 0.0 0.0 0.00 0.00 0.00 15 1016.3
20260508131537 85 43 0.0 0.0 0.00 0.00 0.00 1 1016.1
20260508130040 83 52 0.0 0.0 0.00 0.00 0.00 1 1016.1
20260508124533 81 52 0.0 0.0 0.00 0.00 0.00 1 1016.0
20260508123027 79 51 0.0 0.0 0.00 0.00 0.00 1 1015.8
20260508121515 78 51 0.0 0.0 0.00 0.00 0.00 1 1015.7
20260508120011 75 51 0.0 0.0 0.00 0.00 0.00 1 1015.6
20260508114506 73 51 0.0 0.0 0.00 0.00 0.00 1 1015.3
20260508113002 70 52 0.0 0.0 0.00 0.00 0.00 1 1015.2
20260508111607 69 52 0.0 0.0 0.00 0.00 0.00 1 1014.9
20260508110055 0 0.0 0.0 0.00 0.00 0.00 1014.6
20260508104555 0 0.0 0.0 0.00 0.00 0.00 1014.4
20260508103048 0 0.0 0.0 0.00 0.00 0.00 1014.4
20260508101546 0 0.0 0.0 0.00 0.00 0.00 1014.2
20260508100035 0 0.0 0.0 0.00 0.00 0.00 1014.1
20260508094543 0 0.0 0.0 0.00 0.00 0.00 1013.9
20260508093029 0 0.0 0.0 0.00 0.00 0.00 1013.8
20260508091539 0 0.0 0.0 0.00 0.00 0.00 1013.8
20260508090018 0 0.0 0.0 0.00 0.00 0.00 1013.7
20260508084514 0 0.0 0.0 0.00 0.00 0.00 1013.7
20260508083009 0 0.0 0.0 0.00 0.00 0.00 1013.6
20260508081521 0 0.0 0.0 0.00 0.00 0.00 1013.6
20260508080001 0 0.0 0.0 0.00 0.00 0.00 1013.7
20260508074557 0 0.0 0.0 0.00 0.00 0.00 1013.7
20260508073103 0 0.0 0.0 0.00 0.00 0.00 1013.8
20260508071559 0 0.0 0.0 0.00 0.00 0.00 1013.9
20260508070056 0 0.0 0.0 0.00 0.00 0.00 1013.9
20260508064543 0 0.0 0.0 0.00 0.00 0.00 1014.1
20260508063035 0 0.0 0.0 0.00 0.00 0.00 1014.1
20260508061530 0 0.0 0.0 0.00 0.00 0.00 1014.3
20260508060033 0 0.0 0.0 0.00 0.00 0.00 1014.2
20260508054529 0 0.0 0.0 0.00 0.00 0.00 1014.6
20260508053018 0 0.0 0.0 0.00 0.00 0.00 1014.6
20260508051513 0 0.0 0.0 0.00 0.00 0.00 1014.6
20260508050009 0 0.0 0.0 0.00 0.00 0.00 1014.6
20260508044505 0 0.0 0.0 0.00 0.00 0.00 1014.7
20260508043101 0 0.0 0.0 0.00 0.00 0.00 1014.7
20260508041556 0 0.0 0.0 0.00 0.00 0.00 1014.8
20260508040057 72 51 0.0 0.0 0.00 0.00 0.00 1 1014.9
20260508034550 73 52 0.0 0.0 0.00 0.00 0.00 1 1015.1
20260508033111 74 51 0.0 0.0 0.00 0.00 0.00 1 1015.0
20260508031549 74 51 0.0 0.0 0.00 0.00 0.00 1 1014.9
20260508030100 74 51 0.0 0.0 0.00 0.00 0.00 1 1014.9
20260508024554 74 51 0.0 0.0 0.00 0.00 0.00 1 1014.8
20260508023042 75 51 0.0 0.0 0.00 0.00 0.00 1 1014.8
20260508021542 75 52 0.0 0.0 0.00 0.00 0.00 1 1014.8
20260508020100 76 51 0.0 0.0 0.00 0.00 0.00 1 1014.8
20260508014540 76 51 0.0 0.0 0.00 0.00 0.00 1 1014.7
20260508013037 76 51 0.0 0.0 0.00 0.00 0.00 1 1014.7
20260508011542 77 51 0.0 0.0 0.00 0.00 0.00 1 1014.5
20260508010036 77 51 0.0 0.0 0.00 0.00 0.00 1 1014.5
20260508004532 77 51 0.0 0.0 0.00 0.00 0.00 9 1014.5
20260508003024 77 51 0.0 0.0 0.00 0.00 0.00 41 1014.5
20260508001537 78 51 0.0 0.0 0.00 0.00 0.00 55 1014.4
20260508000015 79 51 0.0 0.0 0.00 0.00 0.00 61 1014.3
20260507234512 80 86 0.0 0.0 0.00 0.00 0.00 63 1014.3
20260507233019 81 111 0.0 0.0 0.00 0.00 0.00 64 1014.3
20260507231507 83 32 0.0 0.0 0.00 0.00 0.00 63 1014.3
20260507230058 83 49 0.0 0.0 0.00 0.00 0.00 61 1014.1
20260507224554 84 36 0.0 0.0 0.00 0.00 0.00 60 1014.2
20260507223050 86 89 0.0 0.0 0.00 0.00 0.00 55 1014.2
20260507221545 88 176 0.0 0.0 0.00 0.00 0.00 52 1014.2
20260507220040 89 22 0.0 0.0 0.00 0.00 0.00 50 1014.2
20260507214539 90 32 0.0 1.0 0.00 0.00 0.00 50 1014.1
20260507213040 90 338 0.0 0.0 0.00 0.00 0.00 45 1014.2
20260507211542 91 244 0.0 0.0 0.00 0.00 0.00 47 1014.3
20260507210023 91 28 0.0 1.0 0.00 0.00 0.00 47 1014.4
20260507204518 91 51 0.0 0.0 0.00 0.00 0.00 46 1014.4
20260507203014 91 53 0.0 1.0 0.00 0.00 0.00 46 1014.6
20260507201518 91 61 0.0 1.0 0.00 0.00 0.00 49 1014.5